TimeEST,TemperatureF,Dew PointF,Humidity,Sea Level PressureIn,VisibilityMPH,Wind Direction,Wind SpeedMPH,Gust SpeedMPH,PrecipitationIn,Events,Conditions,WindDirDegrees,DateUTC
12:15 AM,39.2,30.2,70,29.93,10.0,North,4.6,-,N/A,,Overcast,350,2014-01-16 05:15:00
12:35 AM,37.4,30.2,75,29.92,10.0,North,5.8,-,N/A,,Overcast,10,2014-01-16 05:35:00
12:55 AM,37.4,30.2,75,29.93,10.0,North,3.5,-,N/A,,Overcast,10,2014-01-16 05:55:00
1:15 AM,37.4,28.4,70,29.93,10.0,Calm,Calm,-,N/A,,Overcast,0,2014-01-16 06:15:00
1:35 AM,37.4,28.4,70,29.94,10.0,North,5.8,-,N/A,,Overcast,10,2014-01-16 06:35:00
1:55 AM,35.6,30.2,81,29.93,10.0,NE,5.8,-,N/A,,Overcast,40,2014-01-16 06:55:00
2:15 AM,35.6,30.2,81,29.93,10.0,NNE,4.6,-,N/A,,Overcast,20,2014-01-16 07:15:00
2:35 AM,35.6,30.2,81,29.93,10.0,NNE,6.9,-,N/A,,Overcast,30,2014-01-16 07:35:00
2:55 AM,35.6,28.4,75,29.94,10.0,Calm,Calm,-,N/A,,Overcast,0,2014-01-16 07:55:00
3:15 AM,35.6,30.2,81,29.94,10.0,Calm,Calm,-,N/A,,Overcast,0,2014-01-16 08:15:00
3:35 AM,35.6,30.2,81,29.95,10.0,North,3.5,-,N/A,,Overcast,360,2014-01-16 08:35:00
3:55 AM,35.6,28.4,75,29.93,10.0,NNE,4.6,-,N/A,,Overcast,30,2014-01-16 08:55:00
4:15 AM,35.6,28.4,75,29.94,10.0,Calm,Calm,-,N/A,,Overcast,0,2014-01-16 09:15:00
4:35 AM,35.6,28.4,75,29.92,8.0,NNE,5.8,-,N/A,,Mostly Cloudy,20,2014-01-16 09:35:00
4:55 AM,33.8,28.4,81,29.93,10.0,Calm,Calm,-,N/A,,Overcast,0,2014-01-16 09:55:00
5:15 AM,33.8,28.4,81,29.94,10.0,North,5.8,-,N/A,,Overcast,360,2014-01-16 10:15:00
5:35 AM,33.8,28.4,81,29.94,10.0,NNE,4.6,-,N/A,,Overcast,30,2014-01-16 10:35:00
5:55 AM,33.8,28.4,81,29.96,10.0,Calm,Calm,-,N/A,,Overcast,0,2014-01-16 10:55:00
6:15 AM,33.8,28.4,81,29.97,10.0,Calm,Calm,-,N/A,,Overcast,0,2014-01-16 11:15:00
6:35 AM,35.6,28.4,75,29.98,10.0,North,4.6,-,N/A,,Overcast,350,2014-01-16 11:35:00
6:55 AM,35.6,28.4,75,29.98,10.0,Calm,Calm,-,N/A,,Overcast,0,2014-01-16 11:55:00
7:15 AM,33.8,28.4,81,29.99,10.0,NNE,3.5,-,N/A,,Overcast,20,2014-01-16 12:15:00
7:35 AM,33.8,28.4,81,30.00,10.0,Calm,Calm,-,N/A,,Overcast,0,2014-01-16 12:35:00
7:55 AM,33.8,28.4,81,29.99,10.0,Calm,Calm,-,N/A,,Overcast,0,2014-01-16 12:55:00
8:15 AM,33.8,28.4,81,30.00,10.0,Calm,Calm,-,N/A,,Overcast,0,2014-01-16 13:15:00
8:35 AM,33.8,28.4,81,30.01,10.0,Calm,Calm,-,N/A,,Overcast,0,2014-01-16 13:35:00
8:55 AM,33.8,24.8,70,30.02,10.0,NNW,5.8,-,N/A,,Mostly Cloudy,340,2014-01-16 13:55:00
9:15 AM,35.6,24.8,65,30.02,10.0,NNE,5.8,-,N/A,,Clear,20,2014-01-16 14:15:00
9:35 AM,35.6,23.0,60,30.03,10.0,North,8.1,-,N/A,,Clear,10,2014-01-16 14:35:00
9:55 AM,35.6,23.0,60,30.03,10.0,NNE,8.1,-,N/A,,Clear,20,2014-01-16 14:55:00
10:15 AM,37.4,23.0,56,30.02,10.0,NE,5.8,-,N/A,,Clear,50,2014-01-16 15:15:00
10:35 AM,37.4,24.8,60,30.02,10.0,NE,8.1,-,N/A,,Clear,40,2014-01-16 15:35:00
10:55 AM,39.2,26.6,61,30.02,10.0,NE,6.9,-,N/A,,Clear,40,2014-01-16 15:55:00
11:15 AM,39.2,24.8,56,30.01,10.0,ENE,5.8,-,N/A,,Clear,60,2014-01-16 16:15:00
11:35 AM,39.2,24.8,56,30.01,10.0,NNE,4.6,-,N/A,,Clear,30,2014-01-16 16:35:00
11:55 AM,41.0,23.0,49,30.00,10.0,NNE,4.6,-,N/A,,Clear,30,2014-01-16 16:55:00
12:15 PM,42.8,21.2,42,29.99,10.0,Calm,Calm,-,N/A,,Clear,0,2014-01-16 17:15:00
12:35 PM,42.8,21.2,42,29.98,10.0,North,3.5,-,N/A,,Clear,10,2014-01-16 17:35:00
12:55 PM,42.8,19.4,39,29.97,10.0,Calm,Calm,-,N/A,,Clear,0,2014-01-16 17:55:00
1:15 PM,42.8,19.4,39,29.96,10.0,North,3.5,-,N/A,,Clear,360,2014-01-16 18:15:00
1:35 PM,44.6,17.6,34,29.94,10.0,Calm,Calm,-,N/A,,Clear,0,2014-01-16 18:35:00
1:55 PM,44.6,17.6,34,29.94,10.0,NNW,4.6,-,N/A,,Clear,340,2014-01-16 18:55:00
2:15 PM,44.6,17.6,34,29.93,10.0,WNW,6.9,-,N/A,,Clear,290,2014-01-16 19:15:00
2:35 PM,44.6,15.8,31,29.93,10.0,NW,6.9,-,N/A,,Clear,320,2014-01-16 19:35:00
2:55 PM,46.4,15.8,29,29.93,10.0,West,8.1,-,N/A,,Clear,260,2014-01-16 19:55:00
3:15 PM,46.4,15.8,29,29.94,10.0,West,6.9,-,N/A,,Clear,260,2014-01-16 20:15:00
3:35 PM,44.6,15.8,31,29.94,10.0,WNW,5.8,-,N/A,,Clear,300,2014-01-16 20:35:00
3:55 PM,46.4,15.8,29,29.94,10.0,West,5.8,-,N/A,,Clear,270,2014-01-16 20:55:00
4:15 PM,44.6,15.8,31,29.94,10.0,West,4.6,-,N/A,,Clear,260,2014-01-16 21:15:00
4:35 PM,44.6,17.6,34,29.95,10.0,WSW,6.9,-,N/A,,Clear,250,2014-01-16 21:35:00
4:55 PM,44.6,17.6,34,29.96,10.0,West,4.6,-,N/A,,Clear,260,2014-01-16 21:55:00
5:15 PM,42.8,17.6,36,29.97,10.0,West,3.5,-,N/A,,Clear,260,2014-01-16 22:15:00
5:35 PM,41.0,17.6,39,29.97,10.0,Calm,Calm,-,N/A,,Clear,0,2014-01-16 22:35:00
5:55 PM,37.4,19.4,48,29.98,10.0,West,3.5,-,N/A,,Clear,260,2014-01-16 22:55:00
6:15 PM,37.4,19.4,48,29.99,10.0,Calm,Calm,-,N/A,,Clear,0,2014-01-16 23:15:00
6:35 PM,37.4,19.4,48,30.00,10.0,Calm,Calm,-,N/A,,Clear,0,2014-01-16 23:35:00
6:55 PM,35.6,19.4,52,30.00,10.0,Calm,Calm,-,N/A,,Clear,0,2014-01-16 23:55:00
7:15 PM,33.8,19.4,56,30.00,10.0,Calm,Calm,-,N/A,,Clear,0,2014-01-17 00:15:00
7:35 PM,33.8,19.4,56,30.01,10.0,Calm,Calm,-,N/A,,Clear,0,2014-01-17 00:35:00
7:55 PM,33.8,19.4,56,30.01,10.0,Calm,Calm,-,N/A,,Clear,0,2014-01-17 00:55:00
8:15 PM,30.2,19.4,64,30.01,10.0,Calm,Calm,-,N/A,,Clear,0,2014-01-17 01:15:00
8:35 PM,30.2,21.2,69,30.02,10.0,Calm,Calm,-,N/A,,Clear,0,2014-01-17 01:35:00
8:55 PM,30.2,19.4,64,30.01,10.0,Calm,Calm,-,N/A,,Clear,0,2014-01-17 01:55:00
9:15 PM,30.2,21.2,69,30.02,10.0,Calm,Calm,-,N/A,,Clear,0,2014-01-17 02:15:00
9:35 PM,30.2,21.2,69,30.02,10.0,SSW,3.5,-,N/A,,Clear,200,2014-01-17 02:35:00
9:55 PM,32.0,21.2,64,30.03,10.0,SSW,8.1,-,N/A,,Clear,210,2014-01-17 02:55:00
10:15 PM,33.8,21.2,60,30.03,10.0,SSW,6.9,-,N/A,,Clear,210,2014-01-17 03:15:00
10:35 PM,33.8,21.2,60,30.03,10.0,SSW,4.6,-,N/A,,Clear,210,2014-01-17 03:35:00
10:55 PM,32.0,19.4,60,30.03,10.0,SSW,4.6,-,N/A,,Clear,210,2014-01-17 03:55:00
11:15 PM,30.2,19.4,64,30.02,10.0,SSW,4.6,-,N/A,,Clear,200,2014-01-17 04:15:00
11:35 PM,30.2,19.4,64,30.02,10.0,SSW,4.6,-,N/A,,Clear,210,2014-01-17 04:35:00
11:55 PM,30.2,21.2,69,30.02,10.0,SSW,5.8,-,N/A,,Clear,210,2014-01-17 04:55:00